Terminal Aerodrome Forecast
Issued by NWS

Home | Current Version | Previous Version | Text Only | Print | Product List | Glossary Off
Versions: 1 2 3 4 5 6 7 8 9 10 11 12 13 14 15 16 17 18 19 20

000
FTUS43 KFGF 201600 AAB
TAFBJI
TAF AMD
KBJI 201600Z 2016/2112 18012KT P6SM SCT100 BKN250
      TEMPO 2016/2017 BKN008
     FM201700 19012G20KT P6SM SCT010 SCT080 SCT250
     FM210000 19006KT P6SM VCTS BKN050CB
     FM210400 VRB05KT P6SM SCT250=

USA.gov is the U.S. government's official web portal to all federal, state and local government web resources and services.